Temperature
19 20 20 21 21 19 18 17 17 18 18 19 18 18 19 20 21 21 22 23 23 23 23 22 22 22 22 21 21 20 19 19 18 18 17 17 16 16 16 16 15 15 14 14
20 21 20 20 20 20 19 19 18 18 18 18 18 18 18 19 20 21 22 22 23 23 23 23 22 22 22 21 21 20 20 19 19 18 17 17 17 16 16 16 15 15 15 14
19 19 20 20 20 20 19 18 18 18 18 17 17 16 17 18 19 21 22 22 23 23 23 23 23 22 22 21 21 20 20 19 19 18 17 17 17 16 16 16 16 15 15 15
17 19 20 19 19 19 18 17 17 16 16 16 16 17 17 17 18 20 21 22 22 23 23 23 22 22 21 21 20 20 20 19 19 18 18 17 17 16 16 16 16 15 15 15
15 17 18 19 18 18 18 18 17 16 16 16 17 18 17 17 18 19 20 21 22 22 22 22 22 21 21 20 20 20 19 19 19 18 18 17 17 17 16 16 16 15 15 15
15 18 18 19 18 18 18 18 17 15 15 16 17 16 16 17 18 19 20 21 21 21 21 21 21 20 20 20 19 19 19 19 18 18 17 17 17 16 16 16 15 15 15 14
15 16 17 18 17 18 18 17 17 16 16 16 15 15 16 17 18 19 20 20 20 21 21 20 20 20 19 19 19 19 18 18 17 17 17 16 16 16 15 15 15 14 14 14
14 16 17 17 17 17 16 16 16 16 16 16 15 16 16 17 18 18 19 19 19 20 20 19 19 19 18 18 18 18 17 17 17 16 16 16 15 15 15 14 14 14 14 14
14 15 16 16 16 17 17 16 16 16 16 16 16 16 16 16 17 17 18 18 18 18 18 18 18 18 18 17 17 17 16 16 16 15 15 15 15 14 14 14 13 13 13 13
13 14 15 16 16 16 16 16 16 16 16 16 15 15 16 16 16 16 16 16 17 17 17 17 17 16 16 16 16 16 16 15 15 15 14 14 14 14 13 13 13 13 12 12
14 14 15 16 16 16 16 16 16 16 15 15 15 15 15 15 15 15 15 15 15 15 15 15 15 15 15 15 15 15 14 14 14 14 13 13 13 13 12 12 12 12 11 11
14 15 14 15 16 16 16 16 15 15 15 15 15 15 15 15 14 14 14 14 14 14 14 14 14 14 14 13 13 13 13 13 13 13 12 12 12 12 12 11 11 11 11 11
16 16 16 15 16 16 15 15 15 15 15 15 14 14 14 14 14 13 13 13 13 13 13 13 12 12 12 12 12 12 12 12 12 11 11 11 11 11 11 11 11 11 11 10
15 15 14 14 14 14 14 14 14 14 14 14 14 14 13 13 13 13 13 12 12 12 12 12 12 11 11 11 11 11 11 11 11 10 10 10 10 10 10 10 10 10 10 10
15 15 14 14 14 14 14 14 14 13 13 13 13 13 13 13 13 12 12 12 12 11 11 11 11 11 11 11 11 10 10 10 10 10 10 9 9 9 9 9 9 9 9 9
13 13 13 13 13 13 13 13 13 13 13 13 13 13 13 12 12 12 11 11 11 11 11 11 10 10 10 10 10 10 10 10 9 9 9 9 9 9 8 8 8 8 8 8
13 12 12 12 12 13 12 12 12 12 12 12 12 12 12 12 12 11 11 11 11 11 10 10 10 10 10 10 10 10 9 9 9 9 9 8 8 8 8 8 7 7 8 8
13 13 12 12 12 12 12 12 12 12 12 12 12 12 12 11 11 11 11 11 11 10 10 10 10 10 10 10 9 9 9 9 9 8 8 8 8 7 7 7 7 7 7 7
12 12 12 12 12 12 12 12 12 12 12 12 12 11 11 11 11 11 11 11 10 10 10 10 10 10 10 9 9 9 9 9 8 8 8 7 7 7 7 7 6 6 6 7
12 12 11 11 12 12 12 11 11 11 11 11 11 11 11 11 11 11 11 10 10 10 10 10 10 10 9 9 9 9 8 8 8 7 7 7 6 6 6 6 6 6 6 6
11 11 11 11 11 11 11 11 11 11 11 11 11 11 11 11 11 10 10 10 10 10 10 9 9 9 9 9 8 8 8 7 7 7 6 6 6 6 5 5 5 5 5 5
11 11 11 11 11 11 11 11 11 10 11 11 10 10 10 10 10 10 10 10 10 9 9 9 9 8 8 8 7 7 7 6 6 6 5 5 5 5 5 5 4 4 4 4
10 10 10 10 10 10 10 10 10 10 10 10 10 10 10 10 10 9 9 9 9 8 8 8 8 8 7 7 7 6 6 6 5 5 5 5 4 4 4 4 4 3 3 3
10 10 10 10 10 10 10 10 10 10 10 10 9 9 9 9 9 9 8 8 8 8 7 7 7 6 6 6 6 5 5 5 4 4 4 4 3 3 3 3 3 3 3 3
10 10 10 10 9 9 9 9 9 9 9 9 9 9 9 8 8 8 8 7 7 7 6 6 6 5 5 5 5 4 4 4 3 3 3 3 3 2 2 2 2 2 2 2
9 9 9 9 9 8 8 8 8 8 8 8 8 8 8 7 7 7 7 6 6 6 5 5 5 5 4 4 4 3 3 3 3 2 2 2 2 2 2 2 2 2 2 2
8 8 8 8 8 8 8 7 7 7 7 7 7 7 7 6 6 6 6 5 5 5 4 4 4 4 3 3 3 2 2 2 2 2 2 2 1 1 1 1 1 2 2 2
Wind_Speed
6 5 3 5 5 7 8 8 9 9 9 11 8 7 7 6 6 6 7 8 10 11 10 10 10 10 10 10 10 10 11 12 12 11 10 9 9 9 8 8 9 8 7 7
3 2 3 4 6 6 7 6 7 7 9 7 5 3 3 4 5 6 7 9 10 10 10 11 12 11 11 11 11 11 12 12 10 9 9 9 9 8 8 8 8 7 8 8
4 3 2 6 7 6 5 5 6 8 7 3 3 3 3 3 2 3 5 6 7 9 10 11 12 12 13 12 10 10 11 9 9 9 9 9 9 8 9 9 8 8 9 9
1 1 5 7 1 2 4 4 4 5 4 3 3 1 3 4 3 3 2 2 4 6 7 6 7 8 7 8 9 10 9 8 8 8 8 7 7 8 8 7 7 8 9 9
3 3 6 5 1 2 2 4 3 3 4 3 2 2 5 7 5 3 3 2 1 2 3 4 5 7 8 7 7 8 9 9 9 9 8 8 8 9 7 6 7 8 7 9
4 3 6 6 1 1 3 4 3 3 2 1 2 2 3 7 7 7 6 4 3 3 4 4 4 6 8 7 7 8 9 8 8 8 9 9 9 8 6 6 8 8 9 9
4 5 8 5 1 3 3 6 2 1 0 2 2 2 1 4 6 7 8 7 6 5 5 3 4 7 6 5 7 6 4 4 4 6 7 7 6 5 5 6 6 7 9 9
5 3 7 2 3 5 6 1 1 2 2 4 4 3 4 6 8 9 9 9 7 6 6 5 5 6 5 4 4 3 4 3 4 4 5 4 5 5 5 6 6 7 8 9
8 7 5 2 4 2 3 2 2 2 2 5 5 6 6 7 9 10 9 8 7 7 7 7 5 4 3 1 1 3 3 2 2 2 3 3 4 4 4 4 5 6 7 9
4 7 5 4 3 2 2 2 3 5 5 7 7 7 7 8 8 9 9 8 7 8 9 8 6 5 3 3 3 3 2 0 0 1 2 3 3 3 4 5 6 7 7 8
5 6 3 3 2 3 5 7 8 8 7 7 8 8 8 9 8 7 7 6 7 8 8 7 6 6 6 4 4 3 2 1 1 1 2 3 3 4 5 6 6 7 8 8
7 7 5 3 3 6 9 9 9 10 9 7 8 9 9 8 6 5 6 6 7 7 7 6 6 7 6 4 4 4 3 2 2 2 2 2 3 5 7 9 12 13 14 13
4 1 3 3 5 7 8 9 10 10 9 9 8 8 8 6 5 5 6 6 6 5 5 5 6 6 6 5 4 4 3 2 2 2 3 3 4 5 7 8 9 12 14 15
2 4 5 4 6 9 11 11 11 10 8 8 7 6 6 6 5 5 4 3 3 4 4 4 5 4 4 4 4 4 3 3 3 3 3 4 5 5 6 8 9 9 10 14
5 5 7 9 10 10 10 11 12 9 7 7 5 6 6 5 4 3 2 2 3 3 3 3 3 4 4 3 3 3 3 3 3 3 4 5 5 6 6 8 8 9 10 11
9 11 12 13 12 10 10 10 9 7 5 5 4 3 3 3 2 1 2 1 2 2 3 3 3 4 4 3 2 2 3 5 5 4 5 5 5 6 7 8 8 9 10 11
10 9 10 11 10 9 8 7 6 4 3 2 1 1 2 2 2 2 3 3 2 3 4 4 5 5 4 3 3 3 4 5 7 6 5 6 6 7 7 8 8 9 10 11
10 9 9 9 9 8 7 5 4 3 1 0 0 1 1 0 1 3 4 4 4 5 5 5 5 5 5 4 3 3 4 5 5 6 6 6 7 7 7 8 9 11 10 11
11 10 9 8 7 7 5 3 1 0 1 1 1 2 2 3 3 4 3 3 4 6 6 6 7 5 5 6 5 3 4 6 6 6 6 8 8 8 8 9 10 10 11 11
10 9 8 6 5 4 2 0 0 2 3 2 2 2 4 5 4 4 3 4 5 5 6 6 6 5 6 6 6 4 5 6 7 7 7 7 8 9 9 10 10 11 10 10
8 6 5 3 2 1 1 1 1 3 4 3 2 4 5 6 5 3 3 5 6 5 5 6 4 5 5 5 6 4 5 6 6 7 7 8 8 9 9 10 10 10 10 10
3 2 1 1 1 3 4 3 3 3 4 4 4 4 4 5 5 3 4 4 5 6 5 4 4 6 7 6 4 4 5 5 6 6 6 7 8 9 9 10 10 10 10 10
1 1 1 2 2 3 4 3 3 3 3 4 4 4 4 4 3 2 4 4 3 5 4 4 6 8 8 4 3 4 4 5 6 6 6 7 7 8 9 10 9 9 10 10
2 2 2 2 2 2 4 5 5 4 4 4 3 3 2 2 2 2 3 4 5 5 3 5 8 8 7 4 4 4 5 5 6 6 7 7 7 7 8 8 8 9 9 10
2 2 2 3 3 3 4 5 5 4 4 3 4 4 2 1 2 2 2 3 4 4 4 6 8 8 5 4 4 5 5 5 6 6 6 7 7 7 7 8 8 8 8 8
2 2 2 2 3 3 3 3 3 3 3 3 4 4 3 2 1 2 2 3 4 5 4 4 5 5 4 4 5 5 5 6 6 6 7 7 8 7 7 8 9 8 7 7
3 2 2 3 3 3 3 2 3 3 3 3 3 4 3 2 2 3 3 3 4 4 4 4 4 4 4 5 5 5 5 6 6 6 6 7 7 7 8 9 7 7 7 7
Wind_Direction
237 238 205 223 226 187 190 196 197 231 235 259 268 264 259 243 221 199 200 201 204 206 202 197 197 197 193 195 189 185 185 193 203 203 201 202 204 207 208 209 217 219 222 232
280 268 223 252 251 223 216 213 221 246 261 258 279 277 268 243 199 197 210 211 210 208 200 198 199 197 192 192 188 181 188 200 202 196 199 204 208 208 208 214 218 219 226 232
262 316 21 269 247 213 205 210 199 222 246 307 323 327 312 295 226 203 214 211 209 208 205 203 200 192 192 190 174 176 188 195 192 193 201 208 208 206 213 218 219 225 232 233
204 60 236 251 308 172 188 235 235 252 269 276 263 300 36 23 359 327 301 219 209 206 206 199 183 178 175 160 166 178 187 193 191 191 202 203 201 211 218 217 220 229 236 236
138 212 275 293 230 164 191 277 238 238 271 265 243 72 31 16 10 351 329 309 271 195 182 161 164 160 150 156 168 180 194 200 198 195 200 201 208 217 216 214 224 228 235 236
144 185 242 253 226 160 119 285 257 208 242 284 68 76 335 348 1 8 12 15 32 74 91 110 136 139 148 164 171 196 207 208 201 196 201 209 216 218 213 215 229 233 240 240
169 217 259 257 210 112 170 249 270 179 155 76 89 161 268 356 21 27 27 26 43 67 79 94 121 135 155 166 196 210 197 183 185 196 207 215 217 217 218 223 233 238 247 251
154 199 257 226 143 183 218 250 74 72 84 97 98 73 53 48 40 36 36 32 45 66 62 63 93 119 139 184 211 158 145 166 193 202 212 215 213 223 223 224 236 247 254 265
188 212 244 227 218 233 174 157 135 118 111 108 90 73 60 50 44 39 36 32 38 56 57 52 65 100 128 239 125 121 135 180 214 219 221 217 215 227 232 230 241 255 257 266
241 262 257 253 241 228 181 167 133 119 113 105 97 85 72 61 50 45 39 35 39 55 60 48 39 48 46 35 73 101 118 184 219 231 252 246 238 235 239 244 249 257 261 266
251 270 296 288 212 140 115 105 97 95 97 103 102 92 83 70 53 45 44 38 49 61 63 54 46 44 37 44 73 78 61 23 352 305 280 277 269 253 249 247 244 254 264 266
228 226 196 226 156 130 118 111 110 106 92 84 92 90 81 72 61 56 55 53 56 57 59 50 46 41 28 33 65 76 50 14 352 325 309 300 297 298 269 262 271 264 259 261
237 193 147 122 111 112 112 109 105 99 101 95 82 87 88 80 62 60 58 55 58 59 56 48 45 35 15 20 50 59 43 6 346 334 325 318 311 306 307 303 289 282 275 273
141 108 96 93 98 98 102 101 94 86 82 88 90 88 88 84 72 63 53 44 49 53 48 42 38 16 351 14 44 41 25 3 349 327 319 311 303 298 296 300 305 302 293 284
53 90 112 104 93 91 96 98 92 84 78 73 77 87 92 91 82 60 29 28 48 46 26 20 14 338 333 3 33 17 1 340 329 319 313 307 304 302 300 297 294 296 300 300
81 86 96 97 96 93 93 94 95 89 83 77 70 70 80 93 89 53 12 17 48 2 324 322 310 301 320 339 341 332 319 320 324 314 312 312 310 308 306 304 302 300 300 301
91 92 98 101 94 88 84 86 92 95 91 93 109 99 80 70 45 0 335 337 324 299 297 293 291 301 313 310 302 301 305 313 320 316 307 305 306 305 305 305 304 303 299 297
86 90 97 104 105 97 87 82 88 87 85 340 27 77 81 109 264 281 296 318 326 317 301 286 285 298 302 299 292 290 297 300 303 301 302 303 304 303 303 304 306 304 304 303
80 83 85 91 97 104 110 114 121 239 289 296 300 283 271 266 267 280 295 303 300 297 294 299 308 309 303 302 304 290 295 298 300 299 300 302 304 305 305 304 305 305 305 306
75 74 76 76 77 88 94 87 347 316 307 301 301 298 294 287 284 287 290 282 265 258 275 296 307 306 303 306 314 304 301 299 301 303 306 307 307 307 306 306 306 307 307 307
74 76 77 75 58 32 334 296 286 287 296 298 278 272 278 289 295 291 288 294 293 298 306 308 310 308 309 313 316 310 307 306 306 307 309 310 309 309 311 311 310 310 309 310
62 59 47 31 343 308 304 303 294 289 295 298 297 294 296 301 305 296 262 254 281 313 327 325 323 320 326 325 320 316 317 317 316 315 316 315 314 314 314 314 314 314 314 314
357 325 316 303 290 290 307 316 318 310 304 302 302 298 289 284 277 273 295 300 311 328 336 332 332 335 336 337 330 325 325 324 321 319 318 317 316 315 315 316 319 321 322 324
312 314 315 322 349 348 330 323 326 318 308 302 296 286 274 289 302 269 256 304 333 340 345 340 344 346 346 348 342 338 336 332 329 326 324 322 320 319 320 322 324 327 328 329
317 334 355 7 357 320 302 309 318 326 334 330 328 329 318 264 263 303 328 342 346 350 348 347 352 355 0 357 355 351 346 341 337 333 331 329 329 328 327 328 329 330 332 333
0 349 333 313 292 291 299 308 311 311 317 321 325 330 337 342 338 335 347 354 356 354 353 351 353 359 5 4 360 354 349 345 343 341 340 338 336 336 333 333 332 334 333 334
358 353 348 341 330 322 316 307 302 306 308 306 308 319 329 339 352 356 355 353 354 353 354 357 3 9 11 7 3 359 357 354 351 351 349 347 343 341 339 338 340 339 340 341
Height
1485 1481 1481 1482 1483 1486 1492 1494 1499 1491 1488 1475 1471 1469 1467 1466 1468 1469 1472 1475 1477 1480 1483 1487 1491 1495 1498 1502 1505 1508 1511 1514 1516 1519 1521 1522 1524 1525 1526 1527 1527 1528 1528 1528
1483 1478 1479 1481 1479 1479 1481 1482 1485 1483 1480 1468 1467 1466 1464 1464 1464 1465 1467 1470 1473 1476 1479 1482 1486 1489 1493 1497 1501 1504 1507 1510 1512 1515 1516 1518 1520 1521 1522 1523 1523 1524 1524 1524
1491 1483 1481 1487 1477 1476 1477 1476 1477 1479 1473 1468 1467 1465 1464 1463 1462 1462 1463 1466 1469 1471 1474 1477 1481 1484 1488 1492 1496 1499 1502 1505 1508 1510 1512 1514 1516 1517 1518 1518 1519 1519 1519 1519
1494 1490 1496 1481 1470 1470 1473 1473 1472 1470 1468 1468 1467 1466 1465 1464 1462 1462 1463 1464 1466 1468 1471 1474 1478 1481 1485 1489 1492 1495 1498 1501 1504 1506 1508 1510 1511 1512 1513 1514 1514 1514 1514 1514
1499 1497 1490 1476 1471 1471 1474 1473 1469 1469 1467 1465 1464 1464 1465 1465 1464 1464 1464 1464 1465 1467 1470 1472 1475 1479 1482 1485 1489 1492 1495 1497 1500 1502 1504 1505 1506 1507 1508 1509 1509 1509 1509 1508
1496 1495 1495 1477 1468 1468 1472 1475 1466 1466 1465 1465 1463 1468 1469 1466 1465 1465 1465 1465 1466 1467 1469 1471 1474 1477 1480 1483 1486 1488 1491 1494 1496 1498 1499 1500 1501 1502 1503 1503 1503 1503 1503 1502
1493 1493 1484 1469 1467 1468 1481 1475 1465 1465 1465 1465 1466 1468 1469 1467 1465 1465 1465 1466 1467 1467 1468 1470 1473 1475 1477 1480 1483 1486 1488 1490 1492 1493 1495 1496 1497 1497 1497 1497 1497 1496 1496 1496
1493 1494 1486 1466 1466 1470 1469 1465 1464 1465 1466 1466 1467 1467 1467 1467 1466 1465 1466 1467 1468 1468 1468 1469 1471 1473 1476 1478 1480 1483 1485 1487 1488 1489 1490 1491 1491 1492 1492 1492 1491 1490 1489 1488
1479 1477 1466 1464 1464 1464 1464 1464 1465 1466 1467 1467 1468 1468 1469 1468 1468 1468 1469 1469 1469 1469 1469 1470 1471 1473 1475 1477 1478 1480 1482 1483 1484 1485 1486 1486 1486 1486 1486 1486 1485 1483 1482 1480
1471 1465 1462 1461 1461 1462 1463 1464 1465 1466 1468 1469 1469 1470 1471 1471 1471 1471 1471 1472 1472 1471 1470 1471 1472 1474 1475 1475 1477 1478 1479 1480 1480 1481 1481 1481 1481 1481 1480 1479 1478 1477 1475 1473
1468 1462 1460 1458 1459 1460 1462 1464 1466 1468 1470 1471 1472 1472 1472 1472 1473 1474 1475 1475 1474 1473 1473 1473 1474 1474 1475 1475 1476 1476 1477 1477 1477 1477 1477 1476 1476 1475 1474 1473 1472 1470 1468 1466
1463 1457 1458 1458 1458 1460 1462 1465 1468 1470 1472 1473 1474 1474 1475 1476 1477 1478 1477 1477 1476 1476 1475 1475 1475 1475 1475 1475 1475 1475 1474 1474 1473 1473 1472 1471 1470 1469 1468 1467 1465 1463 1461 1459
1456 1455 1456 1457 1459 1461 1464 1467 1469 1471 1473 1475 1477 1478 1479 1479 1480 1480 1479 1479 1478 1478 1478 1477 1477 1476 1476 1475 1474 1473 1472 1471 1471 1469 1468 1467 1465 1463 1460 1459 1458 1456 1454 1451
1454 1455 1457 1459 1461 1463 1466 1470 1472 1475 1477 1478 1480 1481 1481 1482 1482 1482 1481 1481 1481 1480 1479 1478 1478 1477 1476 1475 1474 1472 1471 1470 1468 1466 1464 1463 1460 1458 1455 1452 1449 1447 1445 1443
1455 1456 1458 1461 1464 1467 1470 1473 1475 1478 1480 1482 1483 1483 1483 1483 1483 1483 1483 1482 1482 1481 1480 1479 1478 1477 1476 1474 1473 1471 1470 1468 1466 1464 1461 1459 1456 1453 1450 1447 1444 1440 1437 1434
1458 1460 1462 1465 1468 1471 1474 1476 1479 1481 1483 1484 1485 1485 1484 1484 1484 1484 1483 1483 1482 1481 1480 1478 1477 1476 1474 1473 1471 1469 1467 1465 1463 1460 1458 1455 1452 1449 1445 1442 1438 1434 1431 1428
1462 1465 1467 1469 1472 1475 1478 1480 1482 1484 1485 1486 1486 1485 1485 1484 1484 1484 1483 1482 1481 1480 1479 1477 1476 1474 1473 1471 1469 1467 1464 1462 1460 1457 1454 1450 1447 1444 1440 1437 1433 1429 1425 1422
1468 1470 1472 1474 1477 1479 1481 1483 1485 1486 1487 1487 1486 1485 1485 1484 1483 1483 1482 1481 1480 1479 1477 1476 1474 1472 1470 1468 1466 1463 1461 1458 1455 1452 1449 1446 1442 1439 1435 1431 1427 1423 1419 1415
1474 1475 1477 1479 1481 1483 1484 1486 1487 1487 1487 1486 1485 1484 1484 1483 1482 1481 1480 1479 1477 1476 1475 1473 1471 1469 1467 1465 1462 1460 1457 1453 1450 1447 1444 1441 1437 1434 1430 1426 1422 1418 1413 1409
1479 1480 1482 1484 1485 1486 1486 1487 1487 1486 1486 1485 1484 1483 1482 1481 1480 1479 1478 1476 1475 1473 1471 1469 1467 1465 1463 1460 1458 1455 1452 1448 1445 1442 1438 1435 1432 1428 1424 1420 1416 1412 1408 1403
1482 1484 1485 1486 1486 1487 1487 1486 1486 1485 1484 1483 1482 1481 1480 1478 1477 1476 1474 1473 1471 1469 1467 1465 1463 1461 1458 1456 1453 1449 1446 1443 1440 1436 1433 1429 1426 1422 1419 1415 1411 1406 1402 1398
1485 1486 1486 1486 1486 1486 1486 1485 1484 1483 1482 1481 1480 1478 1477 1475 1474 1472 1471 1469 1467 1466 1463 1461 1459 1456 1453 1450 1447 1444 1441 1438 1435 1431 1428 1425 1421 1417 1413 1409 1405 1401 1397 1393
1486 1486 1486 1486 1485 1484 1484 1483 1482 1481 1480 1478 1477 1475 1474 1472 1471 1469 1467 1466 1464 1462 1459 1457 1454 1451 1448 1445 1442 1439 1436 1433 1430 1427 1423 1420 1416 1413 1409 1405 1400 1396 1392 1388
1486 1485 1485 1484 1483 1482 1481 1480 1479 1478 1477 1476 1474 1473 1471 1469 1468 1466 1464 1462 1460 1458 1455 1453 1450 1447 1444 1441 1438 1435 1432 1429 1426 1422 1419 1415 1412 1408 1404 1401 1397 1393 1389 1385
1485 1484 1483 1482 1481 1480 1479 1478 1477 1475 1474 1473 1471 1470 1468 1466 1464 1462 1460 1458 1456 1454 1451 1448 1445 1442 1439 1437 1434 1431 1428 1425 1422 1418 1415 1411 1408 1404 1401 1397 1394 1390 1386 1382
1483 1482 1481 1480 1479 1478 1477 1475 1474 1472 1471 1469 1468 1466 1464 1462 1460 1458 1456 1454 1452 1449 1447 1444 1441 1439 1436 1433 1430 1427 1425 1422 1418 1415 1412 1408 1405 1401 1398 1395 1391 1388 1385 1381
1481 1480 1479 1478 1477 1475 1474 1472 1471 1469 1467 1466 1464 1462 1460 1458 1456 1454 1452 1450 1448 1445 1443 1440 1438 1435 1433 1430 1428 1425 1422 1419 1416 1413 1410 1406 1403 1400 1396 1393 1390 1387 1383 1380